Location: Falniów
(50.3639°N, 19.9642°E)
Time: 17:13:09
(UTC+00:00)

Cosmos 1943 Rocket - Pass Details

Date: 18 January 2026
Orbit: 811 x 842 km, 71.0° (Epoch: 16 February)

Event Time Altitude Azimuth Distance (km) Brightness Sun altitude
Exits shadow 04:25:32 16° 222° (SW) 2,006 3.8 -19.6°
Maximum altitude 04:29:56 66° 302° (WNW) 887 2.0 -18.9°
Drops below altitude 10° 04:35:26 10° 25° (NNE) 2,412 4.7 -18.0°
Sets 04:37:53 0° 29° (NNE) 3,350 5.5 -17.6°
